Precipitable_Water
1.02 1.03 1.06 1.11 1.18 1.20 1.21 1.27 1.33 1.33 1.37 1.45 1.46 1.48 1.48 1.51 1.45 1.43 1.41 1.38 1.36 1.27
1.04 1.05 1.06 1.11 1.16 1.22 1.25 1.24 1.28 1.37 1.37 1.42 1.48 1.47 1.45 1.47 1.42 1.41 1.38 1.37 1.32 1.27
0.98 1.04 1.03 1.06 1.11 1.16 1.19 1.21 1.23 1.25 1.30 1.33 1.39 1.41 1.42 1.42 1.46 1.41 1.38 1.31 1.33 1.33
0.83 0.89 0.99 0.99 0.97 0.97 1.03 1.06 1.07 1.14 1.21 1.24 1.28 1.31 1.34 1.34 1.34 1.36 1.38 1.39 1.33 1.28
0.80 0.79 0.80 0.89 0.92 0.84 0.78 0.82 0.86 0.89 0.93 0.98 1.10 1.16 1.21 1.24 1.27 1.31 1.26 1.30 1.31 1.29
0.68 0.65 0.64 0.68 0.68 0.71 0.72 0.71 0.74 0.75 0.73 0.75 0.81 0.86 0.93 1.02 1.11 1.18 1.24 1.29 1.28 1.25
0.56 0.55 0.55 0.55 0.55 0.55 0.56 0.56 0.56 0.57 0.59 0.63 0.67 0.70 0.72 0.75 0.78 0.83 0.93 1.05 1.15 1.20
0.42 0.40 0.37 0.36 0.34 0.34 0.34 0.34 0.35 0.36 0.38 0.40 0.42 0.48 0.55 0.60 0.64 0.65 0.69 0.74 0.81 0.90
0.26 0.25 0.24 0.23 0.22 0.22 0.22 0.24 0.23 0.23 0.24 0.25 0.27 0.28 0.29 0.35 0.40 0.48 0.53 0.55 0.62 0.69
0.21 0.20 0.19 0.20 0.19 0.18 0.18 0.19 0.18 0.19 0.20 0.20 0.22 0.24 0.26 0.27 0.31 0.32 0.35 0.40 0.47 0.55
0.17 0.16 0.16 0.16 0.15 0.14 0.15 0.15 0.16 0.16 0.18 0.19 0.19 0.21 0.22 0.26 0.26 0.29 0.32 0.34 0.36 0.40
0.14 0.14 0.14 0.13 0.14 0.15 0.15 0.16 0.16 0.16 0.16 0.17 0.17 0.18 0.19 0.20 0.22 0.24 0.26 0.31 0.35 0.37
0.17 0.16 0.15 0.16 0.16 0.16 0.17 0.16 0.17 0.17 0.18 0.19 0.18 0.19 0.20 0.20 0.20 0.19 0.21 0.24 0.30 0.36
0.18 0.18 0.18 0.17 0.17 0.17 0.17 0.17 0.17 0.18 0.20 0.21 0.22 0.22 0.23 0.22 0.21 0.20 0.20 0.21 0.24 0.29
Wind_Speed
19 21 22 23 24 26 25 26 29 33 33 33 36 36 37 38 40 39 39 40 41 41
15 15 17 18 20 22 23 24 24 24 25 25 28 32 35 38 43 41 40 39 40 40
12 13 13 14 15 16 18 19 21 24 25 24 21 23 26 27 34 40 40 42 42 42
8 10 13 14 14 15 14 16 17 18 18 21 22 24 27 27 28 30 33 39 42 45
6 8 10 11 12 12 13 13 14 15 15 16 18 21 22 24 25 29 30 35 35 35
3 4 5 6 9 11 14 15 16 16 17 18 19 20 21 23 25 27 27 27 31 33
6 8 9 11 12 14 15 17 18 19 21 22 23 23 24 25 26 28 29 30 31 31
11 12 13 15 16 17 19 20 22 23 24 25 26 27 29 31 31 32 33 34 35 36
14 15 17 18 20 21 23 24 25 26 28 29 30 32 33 34 35 36 38 38 39 39
18 20 22 23 25 27 28 29 31 33 34 35 36 38 39 39 40 41 42 43 43 44
23 25 27 28 30 32 33 35 36 38 39 41 42 44 45 46 46 47 47 48 48 49
27 29 31 33 35 36 38 39 41 42 44 45 46 48 49 50 51 52 53 53 52 52
31 33 35 36 38 40 42 43 44 46 47 49 50 52 53 53 54 55 56 56 56 56
35 37 39 40 42 44 45 46 47 49 50 51 52 53 55 55 56 58 59 59 59 58
Wind_Direction
250 253 254 256 255 260 263 268 263 261 265 265 257 252 248 246 243 246 246 245 245 245
251 259 257 259 259 260 266 268 264 266 269 273 258 251 252 249 245 245 247 247 245 245
254 254 258 261 265 269 273 269 268 271 270 263 262 257 254 253 248 246 248 246 250 248
258 257 259 267 271 280 273 278 273 275 274 264 265 265 260 260 257 253 250 250 252 252
277 270 274 274 271 273 281 283 279 281 280 275 271 270 267 263 263 258 257 255 255 255
301 305 302 286 286 286 287 285 285 287 286 285 282 279 275 272 267 264 264 264 258 257
306 306 299 293 293 293 292 288 289 288 287 287 284 281 279 278 274 272 269 266 264 263
307 306 301 298 297 296 295 292 291 289 288 286 286 284 282 280 277 275 272 270 267 265
307 306 304 304 301 299 297 295 293 292 291 290 288 287 286 284 281 279 276 274 272 269
306 304 303 302 301 300 298 296 294 292 291 289 288 288 286 284 281 279 277 274 272 269
306 305 303 302 301 300 298 297 295 293 291 290 288 288 286 284 281 279 277 275 273 271
307 305 304 302 301 300 299 297 295 294 293 291 289 288 287 285 282 280 278 275 273 271
305 304 303 302 301 301 299 298 296 295 294 292 291 290 288 286 283 281 279 276 273 271
306 305 304 303 303 301 301 300 298 296 295 293 292 291 289 287 284 282 279 276 273 270